Location: Chippewa Lake
(41.0698°N, 81.9010°W)
Time: 01:58:54
(UTC+00:00)

Cosmos 2082 - Pass Details

Date: 09 May 2021
Orbit: 832 x 856 km, 71.0° (Epoch: 24 June)

Event Time Altitude Azimuth Distance (km) Brightness Sun altitude
Rises 08:27:46 0° 339° (NNW) 3,412 7.2 -17.6°
Reaches altitude 10° 08:30:16 10° 343° (NNW) 2,477 6.5 -17.3°
Maximum altitude 08:35:53 60° 63° (ENE) 972 4.3 -16.5°
Drops below altitude 10° 08:41:30 10° 143° (SE) 2,476 6.1 -15.7°
Sets 08:44:00 0° 147° (SSE) 3,411 6.8 -15.4°
